Wind_Speed
11 7 6 4 3 8 7 13 8 3 2 3 7 8 6 7 8 3 6 3 3 5 6 4 3 4 5 6 8 8 10 9 10 10 10 11 13 14 14 16 15 16 18 20
6 5 6 2 2 8 8 11 13 6 4 7 13 11 17 4 12 6 8 6 4 6 5 6 5 4 5 5 7 8 9 11 11 12 13 15 15 16 18 18 19 19 21 24
3 7 8 5 11 6 12 15 2 1 5 10 13 9 13 14 15 15 14 11 4 4 3 5 6 5 5 7 7 9 10 10 11 12 14 16 18 21 20 20 24 24 24 25
9 5 2 10 8 16 14 12 8 7 10 9 10 12 16 25 20 27 24 19 6 5 4 2 2 3 3 5 7 6 9 12 14 15 18 17 18 23 24 26 26 26 32 27
2 4 6 10 8 13 12 7 2 4 2 18 16 20 23 23 33 28 15 6 5 6 5 5 4 3 3 3 9 10 10 16 16 17 17 17 18 22 24 27 32 29 29 37
9 7 8 7 8 9 14 9 9 12 16 23 18 24 16 26 29 10 5 6 16 13 13 10 9 5 2 2 7 9 13 13 18 15 15 19 22 21 24 25 30 28 33 31
9 8 13 19 21 11 16 25 12 19 23 27 32 27 30 28 34 24 30 27 31 21 15 15 14 18 20 10 10 12 14 17 16 16 16 16 16 22 26 31 36 37 35 36
15 16 19 21 23 20 9 19 17 16 13 26 28 29 26 25 30 26 19 10 8 9 15 16 18 19 23 26 26 18 19 19 18 19 16 20 21 25 26 32 33 41 42 44
23 29 28 27 29 26 21 18 18 22 23 21 22 23 25 32 23 23 18 36 22 14 15 15 22 27 28 27 26 33 29 21 18 18 21 26 30 31 32 36 43 45 41 40
28 33 33 25 28 23 14 11 21 19 26 26 20 19 26 26 22 25 15 18 9 24 27 25 24 29 27 30 33 32 30 23 23 25 31 33 33 29 34 38 41 42 41 40
31 37 34 25 20 10 16 16 25 22 11 18 17 24 25 26 28 24 29 26 22 23 23 27 28 26 28 30 32 31 29 31 31 33 35 37 38 36 36 39 40 41 41 37
34 40 37 26 18 16 19 19 19 26 23 26 24 28 28 22 23 25 33 31 16 11 15 21 26 31 33 30 29 32 33 34 36 36 37 40 41 41 44 45 43 42 38 34
38 37 42 37 18 23 24 26 22 24 23 25 27 32 29 25 26 27 28 27 28 25 20 20 23 25 31 30 33 35 35 35 36 37 39 40 42 43 43 44 44 43 39 37
39 43 47 47 39 28 33 32 34 32 30 29 23 25 21 29 33 34 35 34 33 28 36 29 22 25 31 32 36 37 36 34 34 37 38 40 41 39 41 42 42 43 42 40
32 34 30 31 33 37 39 37 37 37 36 32 35 32 29 33 36 38 39 39 41 43 45 39 29 30 34 36 36 34 33 33 34 37 39 38 39 39 41 45 44 40 42 41
37 37 38 38 28 24 31 36 42 43 41 39 36 34 42 46 48 49 51 49 50 41 37 43 29 28 30 33 32 30 32 32 32 35 34 31 31 33 35 32 30 37 38 37
38 41 43 43 37 32 31 26 27 30 34 42 44 50 53 52 53 43 48 50 51 36 35 39 33 28 30 29 28 28 31 31 30 29 28 30 35 34 34 31 30 27 24 22
31 33 35 37 31 29 17 16 23 27 30 33 34 36 37 36 39 47 51 54 56 40 11 18 21 22 23 26 25 26 27 27 26 28 31 31 30 29 30 27 24 19 18 19
17 20 28 26 28 27 17 24 26 29 29 31 31 35 38 38 45 47 54 57 28 8 11 17 19 20 23 23 22 23 24 25 27 26 26 28 29 29 28 25 23 20 18 18
24 31 26 23 27 24 20 21 24 26 26 24 26 31 36 37 44 31 46 5 8 3 12 14 20 24 24 23 24 23 22 21 23 25 27 28 28 27 24 21 18 15 15 14
31 32 20 28 32 17 23 22 25 25 24 25 28 31 16 20 12 13 13 8 4 8 12 14 15 17 19 18 17 17 19 21 24 25 26 26 23 19 17 11 12 12 14 14
26 28 29 31 34 34 23 25 21 17 20 25 27 29 14 10 15 19 20 18 10 10 14 13 13 12 12 13 15 18 20 22 25 26 23 18 16 12 11 15 13 14 13 13
27 23 29 34 35 25 27 31 37 18 17 25 25 18 16 13 12 12 16 26 4 11 10 11 10 11 13 15 16 19 21 24 25 20 16 14 9 9 11 13 14 13 12 12
25 27 33 26 31 24 23 21 12 18 22 18 20 18 19 19 17 14 18 20 21 17 15 11 9 12 14 15 18 20 23 23 21 17 14 14 15 15 16 15 13 12 12 12
28 31 30 29 28 24 24 7 13 17 22 22 19 18 21 23 22 18 20 17 18 19 14 11 9 13 17 21 21 21 21 22 18 17 17 18 17 15 15 14 14 14 12 12
32 29 28 24 29 25 25 15 13 20 22 20 15 14 19 23 22 17 19 20 18 15 14 14 15 16 18 21 22 22 20 21 17 16 14 13 14 13 14 16 17 16 13 13
Wind_Direction
156 192 256 241 65 100 161 242 232 238 355 315 2 303 322 313 331 56 76 28 301 289 293 313 330 342 289 254 242 234 244 243 258 265 265 272 274 274 275 274 274 271 275 272
160 182 198 288 281 222 236 273 260 189 237 116 281 317 273 254 256 185 118 33 52 51 353 324 327 327 318 314 276 258 257 264 260 258 265 271 274 281 285 290 290 290 287 285
119 80 87 120 189 232 312 335 23 37 249 320 293 332 309 274 267 245 204 158 61 31 16 29 15 7 335 306 296 295 290 280 277 270 265 266 270 271 280 285 287 285 277 274
350 29 37 305 339 21 348 29 38 47 22 326 270 284 308 309 307 282 245 207 129 356 351 47 341 328 345 330 318 319 314 304 295 281 272 269 274 278 277 277 278 281 282 282
325 323 324 345 334 318 320 32 22 41 276 277 280 287 297 320 331 320 311 191 253 262 331 348 358 350 34 313 287 291 295 295 303 300 293 286 281 280 284 287 292 296 273 295
295 308 320 290 293 279 308 289 257 280 293 276 309 309 322 345 326 310 6 223 252 268 283 280 271 265 319 305 316 299 296 300 296 283 295 293 289 286 291 293 293 290 294 291
302 318 287 282 291 258 273 279 282 296 308 328 335 334 312 330 321 317 282 230 232 174 307 321 304 312 310 306 278 283 289 292 293 300 288 270 285 295 299 303 302 303 302 304
322 300 277 278 287 287 278 264 268 278 292 298 312 315 318 315 314 317 303 244 132 338 332 318 305 307 305 303 290 290 285 286 293 283 285 292 288 302 299 296 303 302 310 311
271 271 274 275 289 293 286 262 276 268 264 272 288 295 300 317 320 333 313 306 328 317 286 297 316 310 301 296 286 289 296 301 282 274 286 288 292 295 299 300 297 304 311 315
271 271 268 290 272 281 295 305 310 303 283 272 282 313 301 305 319 316 316 328 331 313 324 306 303 306 305 301 298 297 299 292 282 282 282 289 290 287 290 293 295 298 305 311
284 282 278 268 273 283 294 301 291 301 312 306 308 286 298 299 303 311 302 315 308 306 306 303 303 304 302 297 293 292 288 283 284 283 286 289 292 290 292 297 299 301 307 310
254 267 278 289 290 228 236 246 253 267 262 262 265 280 274 283 292 296 297 304 307 316 308 304 299 295 293 292 289 286 283 282 284 288 288 291 294 293 292 295 299 301 302 302
255 265 274 279 276 219 237 226 235 238 245 256 259 265 277 278 277 288 291 295 294 295 288 285 290 292 289 290 292 291 288 287 288 289 287 286 288 293 295 295 293 295 297 299
266 262 267 272 273 248 233 229 230 240 235 236 229 262 271 271 267 271 276 283 282 280 287 278 270 277 279 287 292 291 288 284 282 283 288 293 295 294 295 295 295 295 295 293
283 283 278 274 259 252 249 254 242 240 242 241 231 243 259 267 267 277 283 283 287 289 284 268 263 275 281 287 285 286 286 287 288 291 294 294 295 297 299 292 287 293 292 290
278 282 288 292 284 275 269 256 255 255 253 251 251 260 255 255 258 269 275 280 289 294 271 256 265 283 293 290 285 285 284 286 290 292 290 291 295 299 304 311 300 294 293 292
275 277 282 284 286 278 271 283 271 261 257 252 257 254 262 267 268 271 271 271 264 261 256 257 263 276 278 278 280 283 285 288 292 293 293 293 293 297 299 299 301 301 298 291
275 266 273 282 292 282 287 247 251 252 257 255 268 258 260 263 272 269 265 263 266 275 301 296 293 282 280 279 284 286 289 293 293 291 292 293 296 297 299 300 303 297 296 295
279 269 267 280 298 291 271 236 247 270 248 257 258 253 255 266 267 274 282 270 269 347 299 282 273 276 283 285 290 292 297 294 291 293 297 298 297 297 294 294 295 296 297 297
277 267 257 278 299 296 261 254 254 270 263 264 260 266 278 293 273 273 260 304 359 261 260 282 284 284 289 285 285 290 295 296 302 304 302 300 298 295 290 289 284 284 285 290
268 271 259 287 289 251 257 253 257 262 264 270 281 295 286 301 303 282 294 301 281 253 266 280 284 285 282 287 296 301 303 305 307 305 303 300 297 296 295 283 287 278 288 296
277 280 279 278 282 261 256 263 258 258 277 285 293 306 305 302 311 317 323 311 282 269 260 270 279 289 293 300 307 309 313 317 314 310 304 300 301 294 286 293 281 286 297 298
272 276 271 276 281 266 263 252 246 274 282 291 302 308 305 297 293 302 305 302 217 300 296 304 301 310 319 318 312 311 317 319 315 309 302 304 308 309 302 294 291 297 305 309
265 266 274 272 271 270 266 280 163 289 285 293 289 294 297 297 293 282 291 293 312 314 313 310 314 317 316 317 314 311 314 315 310 308 292 293 301 302 306 309 306 299 302 305
272 264 268 274 275 267 258 263 239 265 282 272 270 281 291 294 298 290 280 283 292 295 292 288 294 307 310 310 307 309 311 312 306 304 297 289 297 298 301 303 302 300 296 299
267 265 266 261 272 268 260 217 246 264 266 262 265 281 287 292 288 281 280 286 288 284 283 284 290 294 297 299 303 306 307 308 302 295 294 296 297 295 295 299 303 304 296 295
Height
5920 5922 5920 5922 5923 5925 5928 5925 5925 5923 5924 5926 5926 5929 5930 5929 5930 5929 5928 5929 5928 5929 5927 5928 5929 5930 5931 5932 5933 5936 5936 5936 5938 5938 5939 5939 5939 5939 5940 5941 5942 5941 5940 5939
5923 5924 5925 5923 5925 5925 5927 5929 5925 5926 5926 5920 5925 5925 5930 5925 5928 5925 5923 5928 5928 5928 5928 5927 5929 5929 5931 5932 5933 5934 5935 5936 5936 5937 5938 5937 5937 5937 5937 5937 5938 5939 5937 5936
5924 5925 5925 5925 5919 5921 5926 5928 5920 5926 5924 5922 5929 5928 5923 5922 5923 5918 5920 5916 5925 5926 5927 5925 5926 5927 5928 5931 5932 5933 5934 5935 5935 5935 5935 5934 5935 5935 5936 5936 5933 5932 5930 5927
5928 5928 5926 5925 5919 5915 5925 5925 5924 5924 5924 5925 5927 5925 5927 5921 5925 5919 5916 5891 5917 5923 5927 5923 5922 5924 5925 5927 5928 5930 5931 5932 5933 5932 5931 5931 5931 5930 5930 5928 5929 5926 5925 5925
5927 5926 5925 5923 5919 5922 5926 5927 5928 5925 5923 5920 5921 5918 5926 5921 5912 5914 5912 5914 5917 5920 5920 5919 5919 5922 5922 5924 5924 5927 5927 5926 5927 5928 5929 5928 5927 5925 5924 5921 5919 5920 5919 5920
5926 5924 5925 5925 5925 5927 5925 5926 5925 5924 5923 5919 5920 5917 5919 5914 5915 5912 5911 5911 5915 5913 5913 5913 5917 5920 5922 5925 5925 5922 5922 5924 5924 5924 5922 5924 5923 5920 5918 5916 5912 5912 5911 5914
5919 5923 5921 5922 5920 5923 5921 5921 5920 5921 5915 5911 5910 5913 5914 5910 5910 5910 5908 5902 5897 5883 5906 5910 5911 5914 5917 5921 5922 5921 5921 5921 5920 5919 5917 5917 5916 5914 5914 5910 5906 5905 5904 5904
5918 5920 5920 5921 5918 5902 5913 5917 5919 5918 5914 5911 5911 5912 5910 5910 5908 5908 5911 5905 5865 5899 5902 5905 5906 5909 5911 5912 5912 5915 5916 5917 5914 5915 5913 5909 5907 5909 5908 5906 5902 5899 5896 5897
5913 5913 5912 5913 5912 5913 5917 5917 5917 5910 5909 5911 5910 5910 5909 5908 5908 5905 5907 5900 5896 5906 5905 5904 5905 5907 5908 5906 5905 5906 5909 5911 5912 5909 5906 5906 5904 5902 5901 5899 5896 5894 5891 5889
5910 5908 5909 5913 5909 5911 5910 5909 5909 5910 5905 5906 5908 5906 5903 5904 5903 5903 5901 5898 5899 5904 5904 5905 5905 5905 5903 5902 5903 5901 5902 5903 5904 5903 5900 5897 5897 5896 5893 5891 5889 5886 5884 5882
5905 5902 5905 5906 5908 5907 5908 5904 5907 5906 5905 5904 5905 5901 5900 5898 5896 5896 5895 5895 5896 5899 5901 5904 5900 5898 5897 5897 5897 5897 5896 5897 5895 5893 5891 5890 5889 5886 5884 5882 5880 5877 5874 5872
5899 5896 5897 5899 5902 5902 5900 5901 5902 5900 5901 5901 5900 5893 5893 5892 5892 5891 5889 5887 5887 5890 5892 5893 5895 5894 5893 5893 5892 5891 5890 5888 5888 5886 5884 5882 5879 5878 5877 5874 5871 5868 5866 5864
5894 5893 5889 5892 5896 5893 5892 5893 5892 5891 5892 5893 5891 5885 5886 5886 5886 5885 5884 5884 5884 5884 5885 5885 5886 5886 5885 5884 5885 5884 5883 5880 5878 5877 5875 5873 5872 5869 5867 5864 5862 5859 5856 5854
5886 5885 5883 5883 5885 5888 5881 5884 5885 5883 5882 5882 5884 5877 5875 5877 5878 5877 5877 5877 5878 5879 5877 5877 5877 5879 5880 5879 5878 5876 5874 5872 5870 5868 5867 5864 5861 5858 5856 5853 5850 5848 5847 5846
5875 5873 5874 5873 5872 5874 5877 5876 5879 5878 5876 5875 5878 5872 5870 5870 5871 5868 5869 5870 5872 5872 5870 5867 5868 5869 5871 5870 5869 5866 5865 5863 5861 5859 5857 5854 5851 5848 5845 5841 5839 5837 5835 5834
5868 5865 5863 5863 5865 5866 5864 5866 5866 5870 5870 5869 5871 5866 5866 5866 5863 5863 5862 5863 5863 5862 5860 5859 5860 5862 5861 5860 5859 5857 5857 5855 5854 5851 5849 5846 5843 5839 5836 5831 5827 5826 5824 5823
5863 5860 5857 5855 5857 5856 5856 5860 5860 5858 5857 5856 5856 5858 5857 5857 5856 5855 5852 5848 5846 5845 5846 5847 5849 5849 5852 5852 5851 5850 5850 5848 5846 5843 5840 5837 5834 5830 5827 5823 5820 5816 5815 5813
5855 5854 5851 5846 5847 5846 5851 5850 5847 5848 5845 5849 5849 5850 5849 5848 5848 5847 5845 5845 5843 5842 5837 5841 5842 5844 5845 5846 5844 5843 5842 5839 5837 5836 5833 5829 5826 5823 5819 5816 5813 5811 5810 5808
5848 5846 5843 5841 5840 5839 5842 5840 5840 5842 5839 5840 5840 5839 5837 5841 5837 5839 5834 5823 5837 5829 5835 5840 5837 5838 5840 5839 5837 5835 5834 5832 5830 5827 5823 5821 5818 5815 5812 5809 5807 5805 5804 5803
5842 5839 5837 5837 5836 5833 5833 5834 5834 5832 5835 5833 5831 5832 5836 5836 5823 5829 5827 5827 5828 5832 5834 5833 5832 5833 5833 5833 5832 5830 5827 5825 5823 5819 5816 5813 5810 5807 5805 5803 5802 5801 5801 5800
5834 5830 5831 5831 5829 5829 5824 5825 5827 5829 5829 5827 5828 5824 5826 5825 5819 5821 5824 5826 5824 5826 5825 5826 5827 5828 5828 5827 5824 5822 5820 5818 5815 5813 5810 5806 5803 5801 5798 5797 5798 5797 5797 5795
5829 5827 5826 5824 5822 5821 5825 5823 5825 5825 5822 5819 5817 5818 5816 5814 5812 5811 5809 5810 5816 5821 5822 5822 5823 5821 5820 5818 5816 5816 5815 5812 5809 5806 5803 5801 5798 5796 5795 5795 5794 5793 5793 5791
5822 5822 5821 5817 5814 5817 5816 5817 5818 5817 5819 5814 5814 5813 5811 5816 5817 5817 5814 5808 5810 5814 5815 5814 5813 5812 5811 5812 5812 5810 5808 5806 5803 5800 5798 5796 5794 5793 5792 5791 5790 5789 5788 5786
5816 5814 5810 5813 5809 5809 5808 5809 5795 5812 5812 5815 5813 5813 5812 5812 5813 5814 5813 5808 5806 5806 5807 5808 5808 5809 5809 5809 5808 5806 5803 5801 5798 5795 5794 5793 5791 5790 5789 5787 5786 5785 5783 5782
5809 5806 5806 5804 5801 5802 5804 5808 5810 5809 5808 5810 5812 5812 5810 5808 5809 5809 5808 5810 5808 5807 5807 5807 5808 5807 5806 5804 5803 5801 5799 5796 5793 5791 5789 5788 5787 5786 5784 5783 5782 5781 5779 5778
5798 5797 5796 5798 5798 5800 5801 5795 5797 5805 5804 5805 5807 5809 5807 5805 5805 5806 5804 5803 5804 5803 5802 5803 5803 5803 5802 5800 5797 5795 5793 5791 5789 5787 5786 5784 5783 5782 5780 5779 5777 5775 5774 5773